Погода в Пурех

Россия / Нижегородская область     56°38′50″N   43°04′05″E
темп.,
°C
ветер,
м/с
пор.,
м/с
влажн.,
%
обл.,
%
осадки,
мм/ч
давл.,
гПа
погр.,
м
13 мая, чт
чт1300:00+16юв387583 0.0 1022209
03:00+13вюв35856 0.0 102272
06:00+14вюв37846 0.0 1022206
09:00+19вюв47680 0.0 1021765
12:00+23вюв61055100 0.0 10191650
15:00+23вюв61156100 0.1 10171925
18:00+18юв6127948 1.1 1017968
21:00+16юв399476 5.2 1016317
14 мая, пт
пт1400:00+13юз22961 0.0 101725
03:00+12юз229568 0.0 101817
06:00+14ю129022 0.0 1019102
09:00+18ю3473100 0.0 1019570
12:00+21ю3456100 0.0 10191193
15:00+23ююв364920 0.0 10181963
18:00+21ююв246796 0.0 1017109
21:00+17вюв3580100 0.1 101780
15 мая, сб
сб1500:00+16вюв41083100 0.0 1015220
03:00+15юв3896100 3.3 1015181
06:00+16юв379486 0.0 1014181
09:00+21юв467591 0.0 1013444
12:00+25ю7105448 0.0 10121118
15:00+26ю6105617 0.0 10111654
18:00+21ю51375100 1.3 1012679
21:00+17ююз51484100 1.4 1012548
16 мая, вс
вс1600:00+15ююз4129683 0.0 1013357
03:00+14ююз4119427 0.0 1013350
06:00+15ююз41088100 0.0 1014406
09:00+19юз586571 0.0 1015753
12:00+22юз575275 0.0 10151365
15:00+23юз574829 0.0 10142005
18:00+22ююз365831 0.0 1014358
21:00+16зюз348142 0.1 101558
17 мая, пн
пн1700:00+14з33870 0.0 101650
03:00+13зюз22930 0.0 101727
06:00+15юз128479 0.0 1018104
09:00+20ююз126285 0.0 1018720
12:00+23юв1249100 0.0 10171351
15:00+24в234996 0.0 1017909
18:00+21всв236753 0.0 1017132
21:00+16вюв368726 0.7 101787